#timestamp,LO_Frequency,Hit,StdDev 
1610283615.3,286046994.6,N
1610283635.1,286046994.2,N
1610283655.9,286046992.9,N
1610283675.7,286046990.5,N
1610283695.6,286046990.5,N
1610283715.4,286046990.1,Y
1610283735.2,286047002.4,P
1610283755.1,286046997.8,N
1610283756.0,286046997.8,N
1610283775.8,286046995.4,N
1610283795.7,286046994.0,N
1610283815.5,286046991.8,N
1610283835.3,286046994.5,N
1610283855.2,286046993.2,N
1610283875.0,286046993.2,N
1610283875.9,286046993.2,N
1610283895.8,286046989.7,Y
1610283915.6,286046997.7,P
1610283935.4,286046994.2,P
1610283955.3,286046990.0,P
1610283975.1,286046991.3,Y
1610283995.8,286046998.8,P
1610284015.7,286047001.2,N
1610284035.5,286046996.9,N
1610284055.4,286046998.6,N
1610284075.2,286047001.9,N
1610284095.0,286047000.2,N
1610284126.0,286046998.4,E
1610284135.9,286047000.9,N
1610284155.7,286047004.3,P
1610284175.6,286047000.3,N
1610284195.4,286047003.6,N
1610284215.2,286047004.0,N
1610284235.1,286047003.4,N
1610284255.8,286047004.6,N
1610284275.7,286047007.8,Y
1610284295.5,286047005.4,P
1610284315.4,286047003.8,P
1610284335.2,286047002.9,N
1610284355.0,286047005.1,Y
1610284355.9,286047005.1,P
1610284375.8,286047000.0,N
1610284395.6,286047000.6,N
1610284415.5,286047005.7,N
1610284435.3,286047005.9,N
1610284455.1,286047001.8,N
1610284475.9,286047004.4,N
1610284495.7,286047004.0,N
1610284515.6,286047004.6,N
1610284535.4,286047001.7,N
1610284555.2,286047002.5,N
1610284575.1,286047000.3,N
1610284576.0,286047000.3,N
1610284595.8,286046998.8,N
1610284615.7,286046998.4,N
1610284635.5,286046999.0,N
1610284655.3,286046998.7,N
1610284675.2,286046998.5,N
1610284695.0,286046997.3,N
1610284695.9,286046997.3,N
1610284715.8,286047002.4,N
1610284735.6,286047001.4,N
1610284755.4,286047003.1,N
1610284775.3,286047001.9,N
1610284795.1,286047001.8,N
1610284815.9,286047001.6,N
1610284835.7,286046998.7,N
1610284855.5,286046997.4,N
1610284875.4,286047002.8,N
1610284895.2,286047002.3,N
1610284915.0,286046998.1,N
1610284915.9,286046998.1,N
1610284935.8,286046997.4,N
1610284955.6,286047001.7,N
1610284975.5,286047007.3,Y
1610284995.3,286047002.4,P
1610285015.1,286046998.2,N
1610285035.9,286047002.5,N
1610285055.7,286047002.6,N
1610285075.6,286047001.3,N
1610285095.4,286047003.8,N
1610285115.2,286047007.1,Y
1610285135.1,286047007.3,P
1610285136.0,286047007.3,N
1610285155.8,286047001.3,N
1610285175.7,286046999.5,N
1610285195.5,286046993.5,N
1610285215.3,286046994.3,N
1610285235.2,286046994.2,N
1610285255.9,286046990.8,N
1610285275.7,286046989.5,N
1610285295.6,286046990.1,N
1610285315.4,286046990.5,N
1610285335.3,286046990.8,N
1610285355.1,286046990.7,N
1610285356.0,286046990.7,N
1610285375.8,286046990.3,N
1610285395.7,286046989.3,N
1610285415.5,286046990.9,N
1610285435.3,286046988.8,N
1610285455.2,286046991.2,N
1610285475.0,286046996.3,N
1610285475.9,286046996.3,N
1610285495.8,286047000.8,N
1610285515.6,286046999.4,N
1610285535.4,286046995.6,N
1610285555.3,286046993.4,N
1610285575.1,286046994.1,N
1610285595.9,286046994.2,N
1610285615.7,286046993.4,N
1610285635.5,286046994.1,N
1610285655.4,286046989.2,N
1610285675.2,286046994.3,N
1610285695.0,286046992.9,N
1610285695.9,286046992.9,N
1610285715.8,286046992.3,N
1610285735.6,286046999.1,N
1610285755.5,286046994.9,N
1610285775.3,286046998.2,N
1610285795.1,286047002.7,N
1610285815.9,286046996.5,N
1610285835.7,286046994.1,N
1610285855.5,286046994.4,N
1610285875.4,286046992.5,N
1610285895.2,286046989.9,N
1610285915.1,286046993.5,N
1610285916.0,286046993.5,N
1610285935.8,286046997.0,N
1610285955.6,286046996.6,N
1610285975.5,286046996.7,N
1610285995.3,286046991.8,N
1610286015.1,286046990.5,Y
1610286035.9,286046995.4,P
1610286055.7,286046992.4,P
1610286075.6,286046993.0,P
1610286095.4,286046995.9,Y
1610286115.2,286047000.5,P
1610286135.1,286046994.9,N
1610286136.0,286046994.9,N
1610286155.8,286046995.0,N
1610286175.7,286047001.3,N
1610286195.5,286047007.5,N
1610286215.3,286047002.0,N
1610286235.2,286046997.3,N
1610286255.0,286047001.5,N
1610286255.9,286047001.5,N
1610286275.7,286047000.9,N
1610286295.6,286046997.1,N
1610286315.4,286046998.7,N
1610286335.3,286046996.8,N
1610286355.1,286046997.3,N
1610286356.0,286046997.3,N
1610286375.8,286046995.8,N
1610286395.7,286047000.8,N
1610286415.5,286047000.9,N
1610286435.3,286047000.4,N
1610286455.2,286047004.4,N
1610286475.0,286047002.0,N
1610286475.9,286047002.0,N
1610286495.8,286046998.8,N
1610286515.6,286047000.6,N
1610286535.4,286047001.7,N
1610286555.3,286047002.7,N
1610286575.1,286046999.9,N
1610286595.9,286046998.8,N
1610286615.7,286046994.4,N
1610286635.5,286046990.4,Y
1610286655.4,286046994.9,P
1610286675.2,286046996.2,N
1610286695.0,286046996.1,N
1610286695.9,286046996.1,N
1610286715.8,286046993.7,Y
1610286735.6,286046992.0,P
1610286755.5,286046993.8,N
1610286775.3,286046999.5,N
1610286795.1,286046997.2,N
1610286815.9,286046996.1,N
1610286835.7,286046992.0,Y
1610286855.6,286046990.4,P
1610286875.4,286046994.4,N
1610286895.2,286046995.8,N
1610286915.1,286046995.3,N
1610286916.0,286046995.3,N
1610286935.8,286046991.7,Y
1610286955.7,286046999.2,P
1610286975.5,286047000.5,N
1610286995.3,286046999.4,N
1610287015.2,286046998.8,N
1610287035.9,286047003.8,N
1610287055.7,286047001.1,N
1610287075.6,286046997.1,N
1610287095.4,286046996.7,N
1610287115.3,286046993.9,N
1610287135.1,286046994.8,N
1610287136.0,286046994.8,N
1610287155.8,286046988.6,Y
1610287175.7,286046995.4,P
1610287195.5,286046995.1,P
